Hourly Weather Muramvya

Today, 17 September, Friday

Time Temperature Precipitation Wind Pressure Humidity
00:00 +17°C° 0.4 mm 0 mps 613 mmHg 80%
01:00 +18°C° 0.4 mm 1 mps 613 mmHg 83%
02:00 +18°C° 0 mm 1 mps 612 mmHg 86%
03:00 +18°C° 0.2 mm 1 mps 612 mmHg 85%
04:00 +18°C° 0.2 mm 1 mps 612 mmHg 85%
05:00 +18°C° 0.2 mm 1 mps 613 mmHg 84%
06:00 +19°C° 0.1 mm 1 mps 613 mmHg 81%
07:00 +17°C° 0.1 mm 0 mps 614 mmHg 77%
08:00 +18°C° 0 mm 0 mps 614 mmHg 72%
09:00 +19°C° 0.4 mm 0 mps 614 mmHg 67%
10:00 +20°C° 0.4 mm 0 mps 615 mmHg 62%
11:00 +23°C° 0.4 mm 1 mps 615 mmHg 57%
12:00 +23°C° 0.5 mm 1 mps 614 mmHg 58%
13:00 +24°C° 0.5 mm 1 mps 614 mmHg 58%
14:00 +24°C° 0.5 mm 2 mps 613 mmHg 59%
15:00 +23°C° 0.5 mm 2 mps 613 mmHg 63%
16:00 +21°C° 0.5 mm 1 mps 612 mmHg 68%
17:00 +20°C° 0.5 mm 1 mps 612 mmHg 73%
18:00 +20°C° 0.1 mm 1 mps 612 mmHg 73%
19:00 +20°C° 0.1 mm 1 mps 612 mmHg 73%
20:00 +20°C° 0.1 mm 1 mps 613 mmHg 74%
21:00 +19°C° 0 mm 1 mps 613 mmHg 74%
22:00 +19°C° 0 mm 1 mps 613 mmHg 74%
23:00 +18°C° 0 mm 1 mps 613 mmHg 74%

Tomorrow, 18 September, Saturday

Time Temperature Precipitation Wind Pressure Humidity
00:00 +18°C° 0.1 mm 1 mps 613 mmHg 75%
01:00 +18°C° 0.1 mm 1 mps 612 mmHg 76%
02:00 +18°C° 0.1 mm 1 mps 612 mmHg 76%
03:00 +16°C° 0 mm 1 mps 612 mmHg 76%
04:00 +16°C° 0 mm 1 mps 612 mmHg 77%
05:00 +16°C° 0 mm 1 mps 612 mmHg 77%
06:00 +19°C° 0 mm 1 mps 613 mmHg 70%
07:00 +19°C° 0 mm 0 mps 614 mmHg 63%
08:00 +21°C° 0 mm 0 mps 615 mmHg 56%
09:00 +24°C° 0.1 mm 1 mps 615 mmHg 51%
10:00 +26°C° 0.1 mm 2 mps 616 mmHg 46%
11:00 +27°C° 0.1 mm 3 mps 616 mmHg 41%
12:00 +26°C° 0.4 mm 2 mps 615 mmHg 46%
13:00 +25°C° 0.4 mm 2 mps 614 mmHg 51%
14:00 +24°C° 0.4 mm 1 mps 613 mmHg 56%
15:00 +23°C° 2.7 mm 1 mps 613 mmHg 64%
16:00 +21°C° 2.7 mm 1 mps 613 mmHg 72%
17:00 +19°C° 2.7 mm 1 mps 612 mmHg 79%
18:00 +19°C° 0.5 mm 1 mps 613 mmHg 81%
19:00 +19°C° 0.5 mm 1 mps 613 mmHg 83%
20:00 +18°C° 0.5 mm 1 mps 613 mmHg 85%
21:00 +18°C° 0.2 mm 1 mps 613 mmHg 85%
22:00 +18°C° 0.2 mm 1 mps 613 mmHg 85%
23:00 +18°C° 0.2 mm 1 mps 614 mmHg 86%

Day after tomorrow, 19 September, Sunday

Time Temperature Precipitation Wind Pressure Humidity
00:00 +18°C° 0 mm 1 mps 613 mmHg 84%
01:00 +18°C° 0 mm 1 mps 613 mmHg 82%
02:00 +18°C° 0 mm 1 mps 612 mmHg 81%
03:00 +18°C° 0 mm 1 mps 612 mmHg 82%
04:00 +16°C° 0 mm 1 mps 613 mmHg 83%
05:00 +16°C° 0 mm 1 mps 613 mmHg 84%
06:00 +18°C° 0.1 mm 1 mps 614 mmHg 79%
07:00 +19°C° 0.1 mm 1 mps 614 mmHg 75%
08:00 +20°C° 0.1 mm 1 mps 615 mmHg 70%
09:00 +20°C° 0.2 mm 1 mps 615 mmHg 72%
10:00 +19°C° 0.2 mm 1 mps 615 mmHg 75%
11:00 +19°C° 0.2 mm 1 mps 615 mmHg 77%
12:00 +21°C° 0.3 mm 1 mps 615 mmHg 69%
13:00 +23°C° 0.3 mm 2 mps 615 mmHg 61%
14:00 +24°C° 0.3 mm 2 mps 614 mmHg 53%
15:00 +23°C° 0.4 mm 2 mps 614 mmHg 58%
16:00 +23°C° 0.4 mm 2 mps 614 mmHg 62%
17:00 +21°C° 0.4 mm 2 mps 613 mmHg 67%
18:00 +19°C° 0 mm 2 mps 613 mmHg 72%
19:00 +19°C° 0 mm 1 mps 613 mmHg 78%
20:00 +18°C° 0 mm 1 mps 613 mmHg 83%
21:00 +18°C° 0 mm 1 mps 613 mmHg 82%
22:00 +16°C° 0 mm 1 mps 613 mmHg 81%
23:00 +16°C° 0 mm 1 mps 613 mmHg 80%

20 September, Monday

Time Temperature Precipitation Wind Pressure Humidity
00:00 +16°C° 0 mm 1 mps 613 mmHg 80%
01:00 +16°C° 0 mm 1 mps 612 mmHg 79%
02:00 +16°C° 0 mm 1 mps 612 mmHg 79%
03:00 +15°C° 0 mm 1 mps 612 mmHg 79%
04:00 +15°C° 0 mm 1 mps 612 mmHg 78%
05:00 +15°C° 0 mm 1 mps 612 mmHg 78%
06:00 +18°C° 0 mm 1 mps 613 mmHg 72%
07:00 +20°C° 0 mm 1 mps 614 mmHg 65%
08:00 +22°C° 0 mm 1 mps 615 mmHg 59%
09:00 +23°C° 0.1 mm 1 mps 615 mmHg 55%
10:00 +24°C° 0.1 mm 1 mps 616 mmHg 50%
11:00 +26°C° 0.1 mm 2 mps 616 mmHg 45%
12:00 +26°C° 0 mm 2 mps 615 mmHg 43%
13:00 +26°C° 0 mm 2 mps 615 mmHg 42%
14:00 +26°C° 0 mm 2 mps 614 mmHg 40%
15:00 +25°C° 0 mm 1 mps 614 mmHg 46%
16:00 +24°C° 0 mm 1 mps 613 mmHg 51%
17:00 +23°C° 0 mm 1 mps 613 mmHg 57%
18:00 +22°C° 0 mm 1 mps 613 mmHg 60%
19:00 +21°C° 0 mm 1 mps 613 mmHg 62%
20:00 +21°C° 0 mm 1 mps 613 mmHg 65%
21:00 +21°C° 0 mm 1 mps 613 mmHg 64%
22:00 +20°C° 0 mm 1 mps 613 mmHg 64%
23:00 +20°C° 0 mm 1 mps 613 mmHg 63%

21 September, Tuesday

Time Temperature Precipitation Wind Pressure Humidity
00:00 +20°C° 0 mm 1 mps 613 mmHg 64%
01:00 +19°C° 0 mm 1 mps 612 mmHg 65%
02:00 +19°C° 0 mm 1 mps 612 mmHg 66%
03:00 +18°C° 0 mm 1 mps 612 mmHg 66%
04:00 +18°C° 0 mm 1 mps 612 mmHg 66%
05:00 +18°C° 0 mm 1 mps 612 mmHg 66%
06:00 +20°C° 0 mm 1 mps 613 mmHg 59%
07:00 +22°C° 0 mm 1 mps 614 mmHg 52%
08:00 +22°C° 0 mm 0 mps 615 mmHg 45%
09:00 +26°C° 0 mm 1 mps 615 mmHg 41%
10:00 +27°C° 0 mm 2 mps 616 mmHg 37%
11:00 +28°C° 0 mm 3 mps 616 mmHg 33%
12:00 +28°C° 0 mm 3 mps 616 mmHg 32%
13:00 +29°C° 0 mm 3 mps 615 mmHg 30%
14:00 +29°C° 0 mm 2 mps 614 mmHg 29%
15:00 +28°C° 0 mm 2 mps 614 mmHg 32%
16:00 +28°C° 0 mm 2 mps 613 mmHg 34%
17:00 +27°C° 0 mm 1 mps 613 mmHg 36%
18:00 +26°C° 0 mm 1 mps 613 mmHg 41%
19:00 +24°C° 0 mm 1 mps 613 mmHg 45%
20:00 +23°C° 0 mm 1 mps 613 mmHg 50%
21:00 +22°C° 0 mm 1 mps 613 mmHg 50%
22:00 +22°C° 0 mm 1 mps 613 mmHg 51%
23:00 +22°C° 0 mm 1 mps 613 mmHg 51%

22 September, Wednesday

Time Temperature Precipitation Wind Pressure Humidity
00:00 +21°C° 0 mm 1 mps 613 mmHg 52%
01:00 +21°C° 0 mm 1 mps 612 mmHg 53%
02:00 +20°C° 0 mm 1 mps 612 mmHg 54%
03:00 +20°C° 0 mm 1 mps 612 mmHg 55%
04:00 +20°C° 0 mm 1 mps 612 mmHg 55%
05:00 +20°C° 0 mm 1 mps 613 mmHg 56%
06:00 +20°C° 0 mm 1 mps 613 mmHg 57%
07:00 +20°C° 0 mm 1 mps 614 mmHg 59%
08:00 +19°C° 0 mm 2 mps 615 mmHg 61%
09:00 +21°C° 0.2 mm 2 mps 615 mmHg 56%
10:00 +23°C° 0.2 mm 2 mps 616 mmHg 52%
11:00 +25°C° 0.2 mm 2 mps 616 mmHg 48%
12:00 +25°C° 0.1 mm 2 mps 615 mmHg 47%
13:00 +25°C° 0.1 mm 2 mps 615 mmHg 46%
14:00 +25°C° 0.1 mm 2 mps 614 mmHg 45%
15:00 +24°C° 0.1 mm 2 mps 613 mmHg 49%
16:00 +23°C° 0.1 mm 1 mps 613 mmHg 53%
17:00 +22°C° 0.1 mm 1 mps 612 mmHg 57%
18:00 +22°C° 0 mm 1 mps 612 mmHg 60%
19:00 +21°C° 0 mm 1 mps 612 mmHg 62%
20:00 +20°C° 0 mm 1 mps 613 mmHg 65%
21:00 +20°C° 0 mm 1 mps 613 mmHg 65%
22:00 +19°C° 0 mm 1 mps 613 mmHg 65%
23:00 +19°C° 0 mm 1 mps 613 mmHg 65%
Show more

We Need Your Consent

Meteoprog and our Service Providers may store and access personal data such as cookies, device identifiers or other similar technologies on your device and process such data to personalise content and ads, as well as provide social media features and to analyse the traffic.

  • Store and/or access information on your device

    Cookies, device identifiers or other information can be stored or accessed on your device for the purposes indicated above.

  • Personalised ads and content, ad and content measurement, audience insights, and products development

    Ads and content can be personalised based on a profile. More data can be added to better personalise ads and content. Ad and content performance can be measured. Insights about the audience who saw the ads and content can be derived. Such data can be used to develop or improve user’s experience, systems and software.

By clicking ‘I Agree’ you will allow the use of indicated cookies, device identifiers, web beacons or other similar technologies. Your settings can be changed in the browser on your device.

For certain purposes, legitimate interests may be relied on, rather than consent. You can read more about this in our Privacy and Cookie Policy.